Torna al catalogo

NIMBUS 2 DEB

AttivoLEO
NORAD 37893·DEBRIS·🇺🇸 United States

Lanciato May 15, 1966 da Vandenberg Space Force Base

Loading…

Prossimi Passaggi (prossime 24 ore)

TLE

AggiornatoSource: Space-Track

Epoca: Sep 14, 2026, 10:07 UTC

1 37893U 66040AY  26257.42201424  .00001176  00000-0  19156-2 0  9996
2 37893 100.5044 236.2702 0058535 316.8080 195.8196 13.49690903696576

Traccia NIMBUS 2 DEB in tempo reale con AllMySat

Download on the App Store